Dewpoint
28 28 27 29 27 27 25 26 25 24 33 40 47 48 55 53 54 55 53 57 62 63 64 62 59 60 59 61 63 66 66 66 67 67 66 65 65 64 63 63 63 61 60 59
24 31 31 30 29 31 31 35 30 39 40 50 50 51 53 54 57 59 60 63 64 66 65 64 64 62 59 60 65 67 66 67 68 67 66 65 64 63 62 63 62 60 59 58
20 31 34 26 29 30 37 45 43 33 38 49 52 51 52 56 57 57 59 65 65 65 66 65 64 64 64 66 67 68 68 68 68 67 66 65 65 64 63 62 61 59 58 56
34 34 30 32 35 49 50 52 51 49 50 50 52 52 54 58 56 57 59 64 65 66 65 64 66 68 68 68 67 65 64 64 64 65 66 66 65 64 64 62 61 58 57 53
31 33 33 31 41 41 43 50 54 53 53 54 55 53 51 55 57 50 60 63 66 65 65 67 67 66 65 64 63 62 61 61 61 61 62 66 66 64 64 62 60 59 56 53
31 28 28 32 41 45 48 45 54 53 54 54 55 50 51 54 65 65 64 65 66 66 66 66 64 63 62 61 61 59 59 59 58 60 61 66 65 63 64 63 59 57 54 53
31 30 32 36 31 44 34 35 53 52 53 54 53 53 53 61 64 64 64 63 64 63 63 62 62 62 60 59 58 57 57 56 56 57 59 62 64 64 63 60 57 54 51 50
32 31 27 52 54 43 49 55 54 55 55 55 56 58 63 63 61 62 61 61 61 61 60 60 59 59 57 57 56 56 56 56 55 55 56 58 60 62 61 59 56 52 51 50
30 32 52 57 57 58 56 57 58 56 57 57 59 61 61 61 60 59 60 61 60 60 59 59 58 58 56 56 55 54 54 54 53 53 54 54 56 57 56 56 54 53 51 50
47 53 53 55 57 59 61 62 62 60 59 61 61 60 59 59 59 59 59 59 58 59 58 58 56 57 56 55 55 54 54 52 51 50 50 51 52 53 54 53 53 52 51 50
50 52 55 55 55 57 61 63 63 62 62 61 60 59 59 59 60 60 60 59 57 57 57 58 57 58 57 56 55 53 51 50 50 49 49 48 47 49 50 48 51 52 52 52
47 51 53 55 55 57 58 62 62 61 61 61 59 58 60 60 59 59 59 57 57 57 58 58 58 58 58 55 53 52 50 49 48 47 46 47 47 45 44 44 43 43 45 47
48 52 52 55 59 59 59 62 62 61 60 59 58 58 58 60 60 59 59 58 57 57 58 57 57 57 57 56 54 52 51 50 49 48 47 46 44 44 44 43 41 40 40 41
45 46 47 52 52 55 61 62 60 60 59 59 58 58 58 59 59 59 58 58 57 57 57 56 56 56 57 57 55 52 51 51 50 50 48 47 46 45 43 43 42 41 39 38
43 44 44 46 48 51 56 59 59 58 58 58 58 58 58 57 58 58 58 58 57 56 56 56 56 56 57 56 54 53 53 52 51 51 50 49 48 46 45 44 42 41 39 38
43 44 44 44 44 47 50 54 56 58 58 58 58 58 58 58 58 57 57 56 55 55 55 55 55 55 56 55 54 51 52 52 49 44 47 49 50 48 47 46 43 41 38 37
39 40 41 42 43 44 46 48 49 52 58 58 58 58 58 58 56 55 55 55 56 55 55 55 55 56 55 50 46 38 37 37 43 40 39 40 46 44 46 45 43 41 39 38
47 46 46 46 46 46 46 46 49 51 54 57 59 58 57 57 56 56 55 55 56 55 55 55 52 49 46 46 43 37 37 37 39 39 41 40 39 38 39 40 42 42 42 40
46 46 46 47 48 48 48 49 49 50 57 59 58 57 57 57 57 55 55 55 54 54 53 49 53 49 47 47 44 42 40 40 42 42 42 44 44 44 42 43 42 39 39 38
45 45 45 45 46 48 50 50 52 52 54 58 57 56 56 56 56 55 55 54 54 54 50 47 48 47 48 46 48 46 46 44 45 43 44 45 45 44 44 42 41 41 37 35
47 48 46 46 46 48 51 52 53 53 54 57 56 55 56 56 56 57 55 55 55 51 47 50 46 49 47 45 47 47 47 45 44 43 42 42 42 41 41 39 38 43 42 43
48 48 48 48 47 48 50 52 54 54 54 54 56 56 55 56 56 56 57 56 55 49 46 45 47 49 47 47 44 44 44 44 44 44 44 44 44 43 42 41 42 42 43 43
49 49 49 48 48 48 49 52 52 53 53 53 55 55 56 57 57 56 55 53 49 47 45 46 49 48 48 44 44 45 46 46 46 45 44 42 40 41 42 42 42 42 41 40
51 50 50 51 50 50 49 50 50 51 52 55 55 53 53 53 51 53 51 47 46 46 47 48 46 47 46 45 45 45 45 45 45 44 44 42 41 42 42 41 40 40 39 38
52 50 49 50 50 50 52 53 52 51 50 52 52 52 51 51 51 50 48 47 46 46 46 47 47 47 46 47 48 48 48 47 46 43 43 42 41 41 41 40 39 38 36 35
52 50 54 55 54 54 53 52 51 51 51 50 51 51 51 51 51 51 51 50 49 48 49 49 49 50 50 49 48 47 46 46 44 43 41 41 40 40 39 38 37 35 34 32
53 50 53 53 53 53 52 52 51 51 51 51 50 51 51 51 50 50 49 50 50 50 50 50 50 50 48 47 46 44 41 41 40 41 40 40 39 39 38 37 36 34 33 31
Lifted_Index
1 1 1 1 1 1 1 1 1 1 0 -0 -1 -1 -1 -2 -2 -2 -2 -4 -5 -6 -6 -6 -6 -5 -5 -6 -6 -6 -5 -5 -5 -4 -4 -3 -2 -1 -0 1 2 3 4 4
1 1 1 1 1 1 0 0 1 1 0 -0 -1 -1 -1 -2 -2 -2 -3 -5 -5 -6 -6 -6 -6 -6 -6 -6 -6 -6 -6 -5 -5 -5 -4 -3 -2 -2 -0 1 2 3 4 4
0 1 1 1 1 0 -0 -1 -0 0 0 -0 -1 -1 -1 -2 -2 -2 -4 -5 -6 -6 -6 -6 -6 -6 -6 -6 -6 -6 -6 -6 -5 -5 -4 -3 -3 -2 -1 0 1 3 4 5
0 0 1 1 1 -0 -1 -1 -1 -0 -0 -1 -1 -1 -2 -2 -1 -1 -3 -5 -6 -5 -5 -5 -5 -6 -6 -6 -6 -6 -6 -6 -5 -5 -4 -4 -3 -2 -1 -0 1 2 4 5
1 0 1 1 0 -0 -1 -1 -1 -0 -0 -1 -1 -1 -1 -2 -2 -2 -3 -4 -5 -5 -5 -5 -6 -6 -6 -5 -5 -5 -5 -5 -5 -4 -4 -3 -3 -2 -1 -1 1 2 4 5
1 1 1 1 1 0 -0 -0 -0 -0 -0 -1 -1 -1 -1 -2 -3 -4 -4 -4 -5 -5 -5 -5 -6 -5 -4 -4 -4 -4 -4 -4 -3 -3 -2 -3 -3 -2 -1 -0 1 2 3 3
2 2 1 1 1 -0 -0 -0 -1 -1 -0 -1 -1 -1 -2 -3 -5 -6 -5 -5 -5 -5 -5 -5 -5 -5 -3 -3 -3 -3 -3 -3 -2 -1 -1 -2 -2 -2 -1 0 1 2 2 2
2 2 0 -1 -2 -1 -1 -2 -2 -2 -1 -1 -1 -2 -4 -5 -6 -6 -6 -6 -5 -5 -5 -5 -5 -4 -3 -3 -3 -3 -3 -2 -0 0 -0 -1 -2 -1 -1 0 1 2 2 2
1 -0 -2 -3 -3 -3 -3 -3 -3 -3 -2 -2 -2 -3 -5 -6 -6 -6 -6 -5 -5 -5 -4 -4 -4 -4 -3 -3 -3 -3 -2 -0 1 1 1 0 -0 -0 0 1 1 2 2 2
-1 -2 -2 -3 -3 -3 -4 -4 -4 -4 -3 -3 -3 -4 -5 -5 -5 -5 -5 -4 -4 -4 -4 -4 -3 -3 -3 -2 -2 -1 -0 1 2 2 2 1 1 1 1 2 2 2 2 2
-2 -2 -2 -2 -2 -2 -3 -4 -4 -4 -4 -4 -4 -4 -4 -5 -4 -4 -4 -3 -3 -3 -3 -3 -2 -2 -1 -1 0 1 2 2 2 2 2 2 2 2 2 3 3 3 3 3
-1 -1 -2 -2 -2 -2 -3 -4 -4 -4 -4 -4 -4 -4 -4 -4 -4 -3 -3 -2 -2 -2 -2 -2 -1 -1 0 1 2 3 3 3 3 3 3 4 4 5 5 5 5 5 4 4
-1 -1 -1 -2 -2 -2 -3 -4 -4 -4 -4 -4 -4 -3 -3 -3 -2 -2 -2 -2 -1 -2 -1 -1 -0 1 2 3 3 4 4 4 5 5 6 7 7 8 8 8 8 7 6 6
0 0 -0 -1 -1 -1 -3 -3 -3 -3 -3 -3 -3 -2 -2 -1 -1 -1 -1 -1 -1 -1 -1 -0 1 2 3 4 4 4 5 5 6 7 7 8 9 10 10 11 10 10 9 10
1 1 1 1 0 -1 -2 -3 -3 -3 -3 -3 -2 -2 -1 -1 -1 -1 -1 -1 -1 -1 0 1 2 3 3 4 4 5 5 6 6 7 7 8 8 9 10 10 10 11 11 11
2 2 1 1 1 0 -0 -1 -2 -2 -2 -2 -2 -2 -1 -1 -0 -0 -0 -0 -0 0 1 2 3 3 4 4 5 6 6 6 7 7 7 7 8 8 9 9 9 9 10 10
2 2 2 2 2 2 1 1 0 -0 -1 -2 -2 -1 -1 -1 -0 0 0 1 1 2 3 3 4 4 4 5 7 8 8 8 8 8 8 8 7 8 8 8 8 8 8 9
1 2 2 2 2 2 2 2 2 1 0 -1 -1 -1 -1 -1 -0 0 1 2 2 3 3 4 4 5 6 7 8 9 8 8 8 8 8 7 7 7 7 7 7 7 7 7
1 2 2 2 2 2 2 2 2 1 1 -0 -1 -1 -1 -0 -0 0 1 2 2 2 3 4 6 7 7 7 8 7 7 7 7 6 6 6 6 5 6 6 6 6 5 5
1 2 2 2 2 2 2 2 1 1 0 -1 -1 -0 -0 -0 -0 0 1 2 2 2 2 4 6 7 7 7 6 6 6 6 6 5 5 5 5 5 5 5 5 5 5 5
2 2 2 2 2 2 2 2 1 1 0 -1 -1 -1 -0 -1 -0 0 1 1 2 2 2 4 5 6 6 6 5 5 5 5 5 4 4 4 4 5 5 5 5 5 5 5
2 2 2 3 3 3 3 2 1 1 0 -0 -1 -1 -0 -0 -0 0 1 1 1 2 2 4 5 6 6 5 5 4 4 4 4 4 4 4 4 5 5 5 5 5 6 6
3 3 3 3 3 3 3 2 1 1 0 -1 -1 -0 -0 -0 -0 -0 0 1 1 2 3 4 5 5 5 5 5 4 4 4 4 4 4 4 4 4 4 4 5 5 6 6
2 3 3 3 3 3 2 2 1 1 0 -0 -1 -0 -0 -0 -0 -0 -0 1 1 3 4 4 4 4 4 4 4 4 4 4 4 4 4 4 4 4 5 5 5 6 6 6
2 3 3 3 2 2 1 1 1 1 1 0 0 -0 -0 0 -0 -0 0 1 2 3 4 4 4 3 3 3 3 3 3 4 4 4 4 4 5 5 6 6 6 6 6 6
2 2 2 1 1 1 1 1 1 1 1 1 1 1 1 1 1 1 1 2 3 4 4 4 3 3 3 3 4 4 4 4 5 5 6 6 6 6 6 6 6 7 7 7
1 1 1 1 1 1 1 1 1 1 1 1 1 1 1 1 2 2 2 3 4 4 4 3 3 3 3 4 4 5 5 5 6 6 7 7 7 7 6 6 7 7 8 8